Tracking 29777 objects as of 7-Oct-2024
HD Live streaming from Space Station
objects crossing your sky now

STARLINK-5646

Track STARLINK-5646 now!
10-day predictions
STARLINK-5646 is classified as:


NORAD ID: 55461
Int'l Code: 2023-015N
Perigee: 565.0 km
Apogee: 567.6 km
Inclination: 43.0 °
Period: 95.8 minutes
Semi major axis: 6937 km
RCS: Unknown
Launch date: February 2, 2023
Source: United States (US)
Launch site: AIR FORCE EASTERN TEST RANGE (AFETR)
Your satellite tracking list
Your tracking list is empty




NASA's NSSDC Master Catalog

Two Line Element Set (TLE):
1 55461U 23015N   24280.24303031  .00003836  00000-0  29903-3 0  9990
2 55461  43.0018 268.6985 0001833 264.1928  95.8706 15.02514427 92614
Source of the keplerian elements: AFSPC